User: anonymous   Login
Location: Unspecified
(0.0000°N, 0.0000°E)
Time: 14:50:33
(UTC+00:00)
Language:

SAUDISAT 4 - Orbit

View from above orbital plane
View from above orbital plane
View from above satellite
View from above satellite

Ground track
Ground track

The orbit data is extracted from the following two-line orbital elements,

1 40016U 14033G   17206.22775310 +.00000028 +00000-0 +11605-4 0  9992
2 40016 097.8574 092.6237 0048782 163.3063 196.9766 14.75122632166744
Epoch (UTC): 25 July 2017 05:27:57
Eccentricity: 0.0048782
inclination: 97.8574°
perigee height: 610 km
apogee height: 679 km
right ascension of ascending node: 92.6237°
argument of perigee: 163.3063°
revolutions per day: 14.75122632
mean anomaly at epoch: 196.9766°
orbit number at epoch: 16674

The dashed part of the orbit path shows where the satellite is in the earth's shadow,  

DLR